Weather in Tulpan

Russia / Perm Krai     61°17′20″N   57°33′22″E
temp.,
°C
wind,
m/s
gust,
m/s
humid.,
%
clouds,
%
prec.,
mm/h
press.,
hPa
HPBL,
m
23 october, sat
sat2323:00+6sw51397100 5.0 985673
02:00+7wsw5139198 1.8 986887
05:00+5sw4129286 1.9 988708
08:00+4wsw4109093 0.1 989397
11:00+5wsw4988100 0.4 991901
14:00+4wsw51276100 0.4 9931169
17:00+4wsw5127983 0.8 9951046
20:00+3wsw51289100 0.1 9971140
24 october, sun
sun2423:00+3wsw61391100 0.4 9991297
02:00+2w4997100 0.7 1001847
05:00+1nnw2498100 2.7 1004202
08:00−1ne129699 0.7 1005235
11:00−1ene2394100 1.7 1006296
14:000ene2395100 0.9 1006276
17:000ne2394100 1.3 1005244
20:00−1nne2595100 0.5 1005256
25 october, mon
mon2523:00−3n269389 0.6 1006211
02:00−4nw1494100 0.0 1007141
05:00−3nw2593100 0.0 1008289
08:00−3wnw1493100 0.0 1009303
11:00−2w2483100 0.1 1010642
14:00−1wnw3685100 0.6 1010732
17:00−2wnw4882100 1.3 1011911
20:00−4w398891 0.1 1012636
26 october, tue
tue2623:00−3w389299 0.3 1012704
02:00−3w4993100 0.6 1012717
05:00−4w4994100 1.0 1013614
08:00−4w3895100 0.4 1014498
11:00−3w3686100 0.8 1015700
14:00−3w3578100 0.3 1015838
17:00−4w258758 0.5 1016147
20:00−8sw119755 0.0 101711
27 october, wed
wed2723:00−9ssw119754 0.0 101710
02:00−9sse119745 0.0 101818
05:00−9se1197100 0.0 101827
08:00−8ese1293100 0.0 101657
11:00−4se2779100 0.0 1015287
14:00−3se3993100 0.3 1012400
17:00−2sse31196100 1.4 1010563
20:000s41098100 1.4 1008618